User: anonymous   Login
Location: Prague
(50.0830°N, 14.4670°E)
Time: 03:43:04
(UTC+01:00)
Language:

STARLINK-1760 - Orbit

View from above orbital plane
View from above orbital plane
View from above satellite
View from above satellite

Ground track
Ground track

The orbit data is extracted from the following two-line orbital elements,

1 46341U 20062S   20334.58335648 -.01075673  00000-0 -34085-1 0  9994
2 46341  52.9993   4.2950 0001293  75.9236 181.4755 15.34964495 14459
Epoch (UTC): 29 November 2020 14:00:02
Eccentricity: 0.0001293
inclination: 52.9993°
perigee height: 460 km
apogee height: 462 km
right ascension of ascending node: 4.2950°
argument of perigee: 75.9236°
revolutions per day: 15.34964495
mean anomaly at epoch: 181.4755°
orbit number at epoch: 1445

The dashed part of the orbit path shows where the satellite is in the earth's shadow,  

DLR